When you browse on this site, cookies collect data to enhance your experience and personalize the content and advertising you see.
Visit our Privacy Policy to learn more. By continuing to use the site, you agree to this use of cookies and data.
  • En España
  • Lista de países
  • Para 7 días
  • Temperatura del agua
  • Mapa Satelital
  • El tiempo en el mapa
  • Informadores
  • user-avatar
    Iniciar sesión

    Tiempo cada hora Zawtat

    Hoy, 21 Abril, Domingo

    Tiempo Temperatura Precipitaciones Viento Presión Humedad
    00:00 +12°C° 0 mm 3 mps 745 mmHg 64%
    01:00 +12°C° 0 mm 4 mps 744 mmHg 61%
    02:00 +11°C° 0 mm 3 mps 744 mmHg 62%
    03:00 +11°C° 0 mm 3 mps 744 mmHg 63%
    04:00 +11°C° 0 mm 3 mps 744 mmHg 64%
    05:00 +12°C° 0 mm 3 mps 744 mmHg 63%
    06:00 +12°C° 0 mm 3 mps 744 mmHg 63%
    07:00 +14°C° 0 mm 2 mps 744 mmHg 63%
    08:00 +16°C° 0 mm 3 mps 744 mmHg 59%
    09:00 +17°C° 0 mm 4 mps 744 mmHg 54%
    10:00 +17°C° 0 mm 5 mps 743 mmHg 50%
    11:00 +17°C° 0 mm 5 mps 743 mmHg 55%
    12:00 +17°C° 0 mm 5 mps 743 mmHg 61%
    13:00 +17°C° 0 mm 5 mps 743 mmHg 67%
    14:00 +17°C° 0 mm 5 mps 742 mmHg 70%
    15:00 +17°C° 0 mm 4 mps 742 mmHg 74%
    16:00 +17°C° 0 mm 4 mps 742 mmHg 77%
    17:00 +15°C° 0 mm 4 mps 742 mmHg 82%
    18:00 +14°C° 0 mm 3 mps 742 mmHg 87%
    19:00 +13°C° 0 mm 3 mps 742 mmHg 92%
    20:00 +12°C° 0 mm 3 mps 742 mmHg 92%
    21:00 +12°C° 0 mm 4 mps 742 mmHg 92%
    22:00 +12°C° 0 mm 4 mps 742 mmHg 92%
    23:00 +11°C° 0 mm 4 mps 742 mmHg 92%

    Mañana, 22 Abril, Lunes

    Tiempo Temperatura Precipitaciones Viento Presión Humedad
    00:00 +11°C° 0 mm 3 mps 742 mmHg 92%
    01:00 +11°C° 0 mm 3 mps 742 mmHg 92%
    02:00 +11°C° 0 mm 3 mps 742 mmHg 92%
    03:00 +11°C° 0 mm 3 mps 741 mmHg 91%
    04:00 +10°C° 0 mm 3 mps 741 mmHg 91%
    05:00 +11°C° 0 mm 3 mps 741 mmHg 88%
    06:00 +12°C° 0 mm 3 mps 740 mmHg 84%
    07:00 +13°C° 0 mm 3 mps 740 mmHg 80%
    08:00 +14°C° 0 mm 4 mps 740 mmHg 75%
    09:00 +15°C° 0 mm 4 mps 739 mmHg 69%
    10:00 +17°C° 0 mm 5 mps 739 mmHg 64%
    11:00 +17°C° 0 mm 5 mps 738 mmHg 63%
    12:00 +17°C° 0 mm 6 mps 738 mmHg 62%
    13:00 +17°C° 0 mm 6 mps 737 mmHg 62%
    14:00 +17°C° 0 mm 6 mps 737 mmHg 62%
    15:00 +17°C° 0 mm 6 mps 737 mmHg 62%
    16:00 +16°C° 0 mm 6 mps 736 mmHg 62%
    17:00 +15°C° 0 mm 6 mps 736 mmHg 68%
    18:00 +14°C° 0 mm 7 mps 736 mmHg 75%
    19:00 +12°C° 0 mm 7 mps 735 mmHg 81%
    20:00 +12°C° 0.2 mm 7 mps 736 mmHg 83%
    21:00 +12°C° 0.2 mm 8 mps 736 mmHg 85%
    22:00 +12°C° 0.2 mm 8 mps 736 mmHg 87%
    23:00 +12°C° 0.1 mm 7 mps 736 mmHg 85%

    Pasado mañana, 23 Abril, Martes

    Tiempo Temperatura Precipitaciones Viento Presión Humedad
    00:00 +12°C° 0.1 mm 7 mps 735 mmHg 83%
    01:00 +13°C° 0.1 mm 6 mps 735 mmHg 81%
    02:00 +13°C° 0.1 mm 6 mps 734 mmHg 80%
    03:00 +13°C° 0.1 mm 6 mps 734 mmHg 79%
    04:00 +13°C° 0.1 mm 5 mps 734 mmHg 78%
    05:00 +14°C° 0 mm 6 mps 734 mmHg 76%
    06:00 +14°C° 0 mm 6 mps 734 mmHg 73%
    07:00 +15°C° 0 mm 6 mps 734 mmHg 70%
    08:00 +15°C° 0 mm 7 mps 734 mmHg 73%
    09:00 +15°C° 0 mm 8 mps 734 mmHg 75%
    10:00 +15°C° 0 mm 8 mps 734 mmHg 77%
    11:00 +15°C° 0.3 mm 8 mps 734 mmHg 81%
    12:00 +13°C° 0.3 mm 9 mps 735 mmHg 86%
    13:00 +13°C° 0.3 mm 9 mps 735 mmHg 90%
    14:00 +13°C° 0.9 mm 8 mps 735 mmHg 91%
    15:00 +13°C° 0.9 mm 8 mps 735 mmHg 93%
    16:00 +13°C° 0.9 mm 8 mps 735 mmHg 95%
    17:00 +13°C° 1 mm 8 mps 735 mmHg 95%
    18:00 +13°C° 1 mm 9 mps 736 mmHg 96%
    19:00 +13°C° 1 mm 9 mps 736 mmHg 97%
    20:00 +13°C° 0.3 mm 8 mps 737 mmHg 95%
    21:00 +13°C° 0.3 mm 8 mps 737 mmHg 94%
    22:00 +14°C° 0.3 mm 7 mps 738 mmHg 92%
    23:00 +14°C° 0.1 mm 7 mps 738 mmHg 91%

    24 Abril, Miércoles

    Tiempo Temperatura Precipitaciones Viento Presión Humedad
    00:00 +14°C° 0.1 mm 7 mps 739 mmHg 90%
    01:00 +14°C° 0.1 mm 6 mps 739 mmHg 89%
    02:00 +13°C° 0 mm 6 mps 739 mmHg 88%
    03:00 +13°C° 0 mm 5 mps 739 mmHg 87%
    04:00 +13°C° 0 mm 5 mps 739 mmHg 86%
    05:00 +14°C° 0 mm 5 mps 739 mmHg 82%
    06:00 +15°C° 0 mm 5 mps 739 mmHg 77%
    07:00 +16°C° 0 mm 5 mps 740 mmHg 73%
    08:00 +17°C° 0 mm 5 mps 740 mmHg 67%
    09:00 +19°C° 0 mm 5 mps 740 mmHg 61%
    10:00 +21°C° 0 mm 5 mps 741 mmHg 55%
    11:00 +21°C° 0 mm 5 mps 741 mmHg 54%
    12:00 +22°C° 0 mm 5 mps 740 mmHg 52%
    13:00 +22°C° 0 mm 5 mps 740 mmHg 50%
    14:00 +22°C° 0 mm 4 mps 740 mmHg 51%
    15:00 +22°C° 0 mm 4 mps 740 mmHg 51%
    16:00 +21°C° 0 mm 4 mps 740 mmHg 51%
    17:00 +20°C° 0 mm 4 mps 741 mmHg 55%
    18:00 +18°C° 0 mm 4 mps 741 mmHg 60%
    19:00 +17°C° 0 mm 4 mps 741 mmHg 64%
    20:00 +15°C° 0 mm 4 mps 741 mmHg 67%
    21:00 +15°C° 0 mm 5 mps 742 mmHg 69%
    22:00 +14°C° 0 mm 5 mps 742 mmHg 71%
    23:00 +14°C° 0 mm 4 mps 742 mmHg 74%

    25 Abril, Jueves

    Tiempo Temperatura Precipitaciones Viento Presión Humedad
    00:00 +14°C° 0 mm 4 mps 742 mmHg 77%
    01:00 +14°C° 0 mm 4 mps 742 mmHg 79%
    02:00 +14°C° 0 mm 4 mps 742 mmHg 79%
    03:00 +13°C° 0 mm 3 mps 742 mmHg 78%
    04:00 +13°C° 0 mm 3 mps 742 mmHg 77%
    05:00 +14°C° 0 mm 3 mps 742 mmHg 75%
    06:00 +17°C° 0 mm 3 mps 742 mmHg 73%
    07:00 +18°C° 0 mm 3 mps 742 mmHg 70%
    08:00 +19°C° 0 mm 3 mps 742 mmHg 65%
    09:00 +21°C° 0 mm 4 mps 742 mmHg 60%
    10:00 +22°C° 0 mm 4 mps 742 mmHg 55%
    11:00 +23°C° 0 mm 4 mps 742 mmHg 55%
    12:00 +23°C° 0 mm 4 mps 742 mmHg 54%
    13:00 +23°C° 0 mm 4 mps 742 mmHg 54%
    14:00 +23°C° 0 mm 4 mps 741 mmHg 55%
    15:00 +22°C° 0 mm 4 mps 741 mmHg 56%
    16:00 +22°C° 0 mm 4 mps 741 mmHg 58%
    17:00 +21°C° 0 mm 3 mps 741 mmHg 60%
    18:00 +20°C° 0 mm 3 mps 740 mmHg 62%
    19:00 +18°C° 0 mm 3 mps 740 mmHg 64%
    20:00 +18°C° 0 mm 3 mps 741 mmHg 65%
    21:00 +17°C° 0 mm 3 mps 741 mmHg 65%
    22:00 +17°C° 0 mm 4 mps 741 mmHg 66%
    23:00 +15°C° 0 mm 4 mps 741 mmHg 67%

    26 Abril, Viernes

    Tiempo Temperatura Precipitaciones Viento Presión Humedad
    00:00 +15°C° 0 mm 4 mps 741 mmHg 68%
    01:00 +15°C° 0 mm 4 mps 741 mmHg 70%
    02:00 +15°C° 0.1 mm 4 mps 740 mmHg 71%
    03:00 +14°C° 0.1 mm 4 mps 740 mmHg 72%
    04:00 +14°C° 0.1 mm 4 mps 740 mmHg 73%
    05:00 +15°C° 0 mm 4 mps 740 mmHg 71%
    06:00 +17°C° 0 mm 4 mps 740 mmHg 69%
    07:00 +18°C° 0 mm 4 mps 740 mmHg 67%
    08:00 +20°C° 0 mm 4 mps 740 mmHg 65%
    09:00 +21°C° 0 mm 5 mps 740 mmHg 63%
    10:00 +22°C° 0 mm 5 mps 740 mmHg 61%
    11:00 +22°C° 0 mm 5 mps 740 mmHg 60%
    12:00 +22°C° 0 mm 5 mps 739 mmHg 59%
    13:00 +23°C° 0 mm 4 mps 739 mmHg 58%
    14:00 +22°C° 0 mm 5 mps 739 mmHg 60%
    15:00 +22°C° 0 mm 5 mps 738 mmHg 61%
    16:00 +22°C° 0 mm 5 mps 738 mmHg 63%
    17:00 +20°C° 0 mm 5 mps 738 mmHg 68%
    18:00 +19°C° 0 mm 5 mps 738 mmHg 73%
    19:00 +18°C° 0 mm 4 mps 738 mmHg 78%
    20:00 +17°C° 0 mm 4 mps 738 mmHg 76%
    21:00 +17°C° 0 mm 4 mps 739 mmHg 75%
    22:00 +15°C° 0 mm 4 mps 739 mmHg 74%
    23:00 +15°C° 0.1 mm 4 mps 739 mmHg 74%
    Mostrar más